Location: Kershaw
(34.5481°N, 80.5823°W)
Time: 02:59:38
(UTC+00:00)

Explorer 7 - Pass Details

Date: 04 October 2022
Orbit: 481 x 665 km, 50.3° (Epoch: 30 November)

Event Time Altitude Azimuth Distance (km) Brightness Sun altitude
Rises 19:43:17 0° 317° (NW) 2,963 10.6 36.9°
Reaches altitude 10° 19:46:36 10° 340° (NNW) 2,021 9.6 36.4°
Maximum altitude 19:49:18 15° 16° (NNE) 1,677 9.0 36.0°
Drops below altitude 10° 19:51:56 10° 52° (NE) 1,957 9.2 35.5°
Sets 19:55:04 0° 76° (ENE) 2,815 10.0 35.0°
